Regional Weather Roundup
Issued by NWS

Home | Current Version | Previous Version | Graphics & Text | Print | Product List | Glossary On
Versions: 1 2 3 4 5 6 7 8 9 10 11 12 13 14 15 16 17 18 19 20 21 22 23 24 25 26 27 28 29 30 31 32 33 34 35 36 37 38 39 40 41 42 43 44 45 46 47 48 49 50
594
ASUS43 KIND 270159
RWRIN

WEATHER ROUNDUP FOR INDIANA
NATIONAL WEATHER SERVICE INDIANAPOLIS IN
1000 PM EDT FRI AUG 26 2016

NOTE: "FAIR" INDICATES FEW OR NO CLOUDS BELOW 12,000 FEET WITH NO
SIGNIFICANT WEATHER AND/OR OBSTRUCTIONS TO VISIBILITY.

* - STATION DOES NOT REPORT WEATHER SUCH AS PRECIPITATION OR FOG.

+ - STATION NOT QUALITY CONTROLLED BY THE NATIONAL WEATHER SERVICE.
    USE DATA WITH CAUTION...ESPECIALLY DEWPOINT AND RELATIVE
    HUMIDITY OBSERVATIONS.

INZ001>003-010>013-019-020-270300-
NORTHWEST INDIANA

CITY           SKY/WX    TMP DP  RH WIND       PRES   REMARKS
GARY /AIRPORT/ PTCLDY    73  66  78 E10       30.14S
KNOX *+        PTCLDY    70  54  56 N5        30.13S
MONTICELLO +   CLOUDY    75  68  79 CALM      30.12R
RENSSELAER +   LGT RAIN  72  70  94 NE3       30.13S

$$

LMZ046-743>745-270300-
SOUTHERN LAKE MICHIGAN

STATION/POSITION TIME  TEMP    WIND        PRES    WAVE
                       AIR SEA DIR/SP/G            HT
                 (UTC) (F)     (DEG/KT/KT) (MB)    (FT)
BURNS HARBOR     0102   73      60/ 11/ 16 1020.7R
MICHIGAN CITY    0100   73      30/ 14/ 15   N/A
5NW MICH CITY    0100   74 75   50/ 12/ 16   N/A     2

$$

INZ004-005-014>016-021>024-270300-
NORTH CENTRAL INDIANA

CITY           SKY/WX    TMP DP  RH WIND       PRES   REMARKS
GOSHEN         CLOUDY    74  66  76 CALM      30.15R
SOUTH BEND     CLOUDY    71  65  81 N7        30.15R

$$

INZ006>009-017-018-025>027-270300-
NORTHEAST INDIANA

CITY           SKY/WX    TMP DP  RH WIND       PRES   REMARKS
ANGOLA *+      CLEAR     72  64  78 CALM      30.15S
FORT WAYNE     CLOUDY    76  65  68 E6        30.14R

$$

INZ028-029-035-036-043>045-051>053-270300-
WEST CENTRAL INDIANA

CITY           SKY/WX    TMP DP  RH WIND       PRES   REMARKS
CRAWFORDSVL +  CLOUDY    70  70 100 CALM      30.13R
GREENCASTLE +  PTCLDY    72  72 100 N3        30.12S
LAFAYETTE      CLOUDY    74  74 100 CALM      30.11S
TERRE HAUTE    CLOUDY    73  70  90 N5        30.11R

$$

INZ030>032-037>040-046>048-054>057-064-065-270300-
CENTRAL INDIANA

CITY           SKY/WX    TMP DP  RH WIND       PRES   REMARKS
COLUMBUS       CLEAR     72  72 100 CALM      30.12R
INDIANAPOLIS   CLOUDY    73  70  90 E7        30.11R
-EAGLE CREEK   CLOUDY    73  69  87 CALM      30.12R
KOKOMO *+      CLOUDY    75  72  88 CALM      30.14R
MT COMFORT *+  CLOUDY    68  68 100 N3        30.14R
SHELBYVILLE    PTCLDY    73  67  81 NE3       30.11R

$$

INZ033-034-041-042-049-050-058-059-270300-
EAST CENTRAL INDIANA

CITY           SKY/WX    TMP DP  RH WIND       PRES   REMARKS
MUNCIE         CLOUDY    75  71  87 SE3       30.14R

$$

INZ060-061-067>069-081>083-085>088-270300-
SOUTHWEST INDIANA

CITY           SKY/WX    TMP DP  RH WIND       PRES   REMARKS
EVANSVILLE     MOCLDY    78  73  84 NE5       30.08R
HUNTINGBURG *+ MOCLDY    79  73  83 CALM      30.09S

$$

INZ062-063-066-070>080-084-089>092-270300-
SOUTH CENTRAL AND SOUTHEAST INDIANA

CITY           SKY/WX    TMP DP  RH WIND       PRES   REMARKS
BLOOMINGTON    PTCLDY    74  69  85 CALM      30.11S
MADISON *+     CLEAR     79  72  78 N3        30.13S

$$





USA.gov is the U.S. government's official web portal to all federal, state and local government web resources and services.